Main page
METAR-TAF:

METAR-TAF

Airports :

Forlì, Italy

Forlì Airport

latitude: 44-12N, longitude: 012-04E, elevation: 27 m

Current weather observation

The report was made 11 hours and 36 minutes ago, at 16:50 UTC
Wind 2 kt from variable directions
Temperature 11°C
Humidity 66%
Pressure 1017 hPa
Visibility 10 km or more
Few clouds at a height of 1500 ft
Scattered clouds at a height of 4500 ft

METAR: LIPK 171650Z VRB02KT 9999 FEW015 SCT045 11/05 Q1017

Time: 05:26 (04:26 UTC)


TAF: missing

Weather observations and forecasts of more than 4000 airports (METAR and TAF reports).

The available stations are represented by yellow and red dots on the map.

Hover mouse over dot to see the name of the station.

Then click to see weather observations and forecasts.

To change the map : click on the green buttons with a black cross to zoom in, on the green button with a dash to zoom out, or on the green arrows for adjacent maps.


METAR-TAF: